CAPE
1 1 1 1 1 1 1 1 1 1 1 1 1 1 0 0 0 0 0 0 0 0 0 0 0 0 0 0 0 0 0 0 0 0 0 0 0 0 0 0 0 3 427 1380 1151
2 1 1 1 1 1 1 1 1 1 1 1 1 1 1 0 0 0 0 0 0 0 0 0 0 0 0 0 0 0 0 0 0 0 0 0 0 0 0 0 44 1014 1370 1344 1130
1 1 1 1 1 1 1 1 1 1 1 1 1 0 0 0 0 0 0 0 0 0 0 0 0 0 0 0 0 0 0 0 0 0 0 0 0 0 0 102 56 855 1274 1290 1216
1 1 1 1 1 1 1 1 1 1 1 1 0 0 0 0 0 0 0 0 0 0 0 0 0 0 0 0 0 0 0 0 0 0 0 0 0 0 0 220 239 819 1304 1392 1240
1 2 2 1 1 1 1 1 1 1 1 1 0 0 0 0 0 0 0 0 0 0 0 0 0 0 0 0 0 0 0 0 0 0 0 0 0 0 0 56 590 1158 1388 1449 1083
1 2 2 1 2 1 1 1 1 1 1 1 0 0 0 0 0 0 0 0 0 0 0 0 0 0 0 0 0 0 0 0 0 0 0 0 0 0 0 0 999 1261 1451 1380 956
1 1 2 1 1 1 1 1 1 1 1 0 1 0 0 0 0 0 0 0 0 0 0 0 0 0 0 0 0 0 0 0 0 0 0 0 0 0 0 304 1488 1408 1607 1248 1031
1 1 1 1 1 1 1 0 1 1 1 1 1 0 0 0 0 0 0 0 0 0 0 0 0 0 0 0 0 0 0 0 0 0 0 0 0 0 0 1040 1795 1518 1745 1310 1208
1 1 1 1 1 1 1 0 0 1 1 1 0 0 0 0 0 0 0 0 0 0 0 0 0 0 0 0 0 0 0 0 0 0 0 0 0 0 22 913 1923 1838 1725 1394 1481
1 1 1 1 2 1 0 0 0 1 1 0 0 0 0 0 0 0 0 0 0 0 0 0 0 0 0 0 0 0 0 0 0 0 0 0 0 0 188 826 1711 1907 1709 1554 1627
1 1 1 1 1 2 0 0 0 0 0 0 0 0 0 0 0 0 0 0 0 0 0 0 0 0 0 0 0 0 0 0 0 0 0 0 0 0 305 807 1801 2017 1856 1701 1557
1 1 2 2 2 2 1 0 0 0 0 0 0 0 0 0 0 0 0 0 0 0 0 0 0 0 0 0 0 0 0 0 0 0 0 0 0 73 620 574 1783 1943 1890 1743 1262
1 2 2 2 0 0 0 0 0 0 0 0 0 0 0 0 0 0 0 0 0 0 0 0 0 0 0 0 0 0 0 0 0 0 0 0 0 193 605 954 1264 1879 1829 1708 1524
2 2 2 0 0 0 0 0 0 0 0 0 0 0 0 0 0 0 0 0 0 0 0 0 0 0 0 0 0 0 0 0 0 0 0 0 0 0 227 699 1130 1639 1784 1721 1617
2 4 2 4 0 0 0 0 0 0 0 0 0 0 0 0 0 0 0 0 0 0 0 0 0 0 0 0 0 0 0 0 0 0 2 0 0 12 59 334 725 1597 1797 1505 1449
3 2 2 0 1 0 0 0 0 0 0 0 0 0 0 0 0 0 0 0 0 0 0 0 0 0 0 0 0 0 0 0 0 1 0 1 0 121 102 20 228 1100 1654 1820 1836
4 1 2 1 0 0 0 0 0 0 0 2 0 0 0 0 3 0 0 0 0 0 0 0 0 0 0 0 0 0 0 0 0 0 39 0 0 8 0 32 140 408 1074 1637 1753
4 1 0 0 0 0 0 0 0 0 0 105 10 0 0 9 4 0 0 0 0 0 0 0 0 0 0 0 0 0 0 9 0 3 36 0 0 0 12 289 325 543 840 1404 1595
3 0 0 0 0 0 0 0 0 0 0 28 125 9 47 50 50 22 0 0 0 0 10 15 60 0 0 0 0 0 0 0 0 0 0 0 0 0 0 109 356 492 1109 1357 1560
3 1 0 0 0 0 0 0 0 1 2 144 128 180 74 78 72 58 30 0 0 0 0 37 45 0 0 0 0 0 0 0 2 66 15 7 0 10 0 0 0 58 195 541 1104
3 5 1 0 0 0 0 0 0 29 45 110 252 223 145 94 69 63 53 35 0 0 0 5 20 0 0 0 8 0 0 0 20 9 56 47 4 0 7 33 76 138 261 421 692
0 85 0 0 0 0 0 0 3 18 1 0 69 172 252 170 130 116 93 111 7 0 0 0 1 7 10 0 0 1 20 3 28 47 0 12 2 0 12 38 59 118 167 347 546
68 177 0 0 0 0 0 0 21 10 4 0 0 124 200 242 194 155 64 0 0 17 2 0 0 65 0 0 0 0 0 3 44 95 61 8 5 0 0 33 32 40 28 186 410
112 194 293 225 140 5 0 0 0 12 31 30 30 151 115 90 54 8 16 0 0 6 0 11 25 27 64 45 11 1 0 0 1 27 41 15 14 0 0 0 0 0 1 119 179
98 78 4 108 125 50 22 0 0 6 103 111 164 166 163 133 53 67 0 0 0 0 0 6 24 78 29 0 0 0 0 0 0 0 10 22 0 0 0 0 0 0 0 0 3
0 7 0 32 72 65 48 11 31 9 86 49 211 130 112 85 42 49 9 0 5 0 0 0 12 29 0 0 0 0 0 0 0 0 0 0 11 0 0 0 0 0 0 0 0
0 0 0 0 4 11 0 0 0 12 0 1 97 89 9 0 0 0 0 0 0 0 0 0 0 0 10 0 0 0 0 0 0 0 1 6 12 0 0 0 0 0 0 0 0
CIN
-0 -0 -0 -0 -0 -0 -0 -0 -0 -0 -0 -0 -0 -0 -0 -0 -0 -0 -0 -0 -0 -0 -0 -0 -0 -0 -0 -0 -0 -0 -0 -0 -0 -0 -0 -0 -0 -0 -0 -0 -0 -46 -59 -53 -250
-0 -0 -0 -0 -0 -0 -0 -0 -0 -0 -0 -0 -0 -0 -0 -0 -0 -0 -0 -0 -0 -0 -0 -0 -0 -0 -0 -0 -0 -0 -0 -0 -0 -0 -0 -0 -0 -0 -0 -0 -99 -144 -161 -210 -242
-0 -0 -0 -0 -0 -0 -0 -0 -0 -0 -0 -0 -0 -0 -0 -0 -0 -0 -0 -0 -0 -0 -0 -0 -0 -0 -0 -0 -0 -0 -0 -0 -0 -0 -0 -0 -0 -0 -0 -77 -89 -86 -203 -239 -197
-0 -0 -0 -0 -0 -0 -0 -0 -0 -0 -0 -0 -0 -0 -0 -0 -0 -0 -0 -0 -0 -0 -0 -0 -0 -0 -0 -0 -0 -0 -0 -0 -0 -0 -0 -0 -0 -0 -0 -21 -82 -82 -192 -200 -157
-0 -0 -0 -0 -0 -0 -0 -0 -0 -0 -0 -0 -0 -0 -0 -0 -0 -0 -0 -0 -0 -0 -0 -0 -0 -0 -0 -0 -0 -0 -0 -0 -0 -0 -0 -0 -0 -0 -0 -36 -144 -115 -169 -151 -119
-0 -0 -0 -0 -0 -0 -0 -0 -0 -0 -0 -0 -0 -0 -0 -0 -0 -0 -0 -0 -0 -0 -0 -0 -0 -0 -0 -0 -0 -0 -0 -0 -0 -0 -0 -0 -0 -0 -0 -0 -124 -127 -127 -120 -96
-0 -0 -0 -0 -0 -0 -0 -0 -0 -0 -0 -0 -0 -0 -0 -0 -0 -0 -0 -0 -0 -0 -0 -0 -0 -0 -0 -0 -0 -0 -0 -0 -0 -0 -0 -0 -0 -0 -0 -143 -92 -85 -91 -92 -89
-0 -0 -0 -0 -0 -0 -0 -0 -0 -0 -0 -0 -0 -0 -0 -0 -0 -0 -0 -0 -0 -0 -0 -0 -0 -0 -0 -0 -0 -0 -0 -0 -0 -0 -0 -0 -0 -0 -0 -81 -65 -65 -70 -84 -103
-0 -0 -0 -0 -0 -0 -0 -0 -0 -0 -0 -0 -0 -0 -0 -0 -0 -0 -0 -0 -0 -0 -0 -0 -0 -0 -0 -0 -0 -0 -0 -0 -0 -0 -0 -0 -0 -0 -50 -56 -29 -54 -70 -77 -105
-0 -0 -0 -0 -0 -0 -0 -0 -0 -1 -0 -0 -0 -0 -0 -0 -0 -0 -0 -0 -0 -0 -0 -0 -0 -0 -0 -0 -0 -0 -0 -0 -0 -0 -0 -0 -0 -0 -42 -36 -28 -32 -62 -103 -135
-0 -0 -0 -0 -0 -1 -0 -0 -0 -0 -0 -0 -0 -0 -0 -0 -0 -0 -0 -0 -0 -0 -0 -0 -0 -0 -0 -0 -0 -0 -0 -0 -0 -0 -0 -0 -0 -0 -37 -31 -11 -28 -68 -79 -128
-0 -0 -0 -0 -0 -0 -0 -0 -0 -0 -0 -0 -0 -0 -0 -0 -0 -0 -0 -0 -0 -0 -0 -0 -0 -0 -0 -0 -0 -0 -0 -0 -0 -0 -0 -0 -0 -45 -48 -37 -11 -29 -61 -88 -248
-0 -0 -0 -0 -0 -0 -0 -0 -0 -0 -0 -0 -0 -0 -0 -0 -0 -0 -0 -0 -0 -0 -0 -0 -0 -0 -0 -0 -0 -0 -0 -0 -0 -0 -0 -0 -0 -53 -70 -56 -44 -25 -67 -106 -168
-0 -0 -0 -1 -0 -0 -0 -0 -0 -0 -0 -0 -0 -0 -0 -0 -0 -0 -0 -0 -0 -0 -0 -0 -0 -0 -0 -0 -0 -0 -0 -0 -0 -0 -0 -0 -0 -0 -42 -98 -119 -100 -116 -130 -155
-0 -0 -0 -0 -0 -0 -0 -0 -0 -0 -0 -0 -0 -0 -0 -0 -0 -0 -0 -0 -0 -0 -0 -0 -0 -0 -0 -0 -0 -0 -0 -0 -0 -0 -2 -0 -0 -23 -59 -41 -69 -95 -127 -184 -198
-0 -0 -0 -0 -0 -0 -0 -0 -0 -0 -0 -0 -0 -0 -0 -0 -0 -0 -0 -0 -0 -0 -0 -0 -0 -0 -0 -0 -0 -0 -0 -0 -0 -3 -0 -3 -0 -21 -38 -94 -34 -64 -64 -110 -117
-0 -0 -0 -0 -0 -0 -0 -0 -0 -0 -0 -1 -0 -0 -0 -0 -1 -0 -0 -0 -0 -0 -0 -0 -0 -0 -0 -0 -0 -0 -0 -0 -0 -0 -10 -0 -0 -4 -0 -79 -16 -37 -52 -82 -90
-0 -0 -0 -0 -0 -0 -0 -0 -0 -0 -0 -6 -3 -0 -0 -4 -3 -0 -0 -0 -0 -0 -0 -0 -0 -0 -0 -0 -0 -0 -0 -6 -4 -7 -13 -0 -0 -0 -15 -49 -22 -6 -21 -51 -89
-0 -0 -0 -0 -0 -0 -0 -0 -0 -0 -0 -14 -4 -1 -2 -3 -5 -3 -0 -0 -0 -0 -2 -3 -10 -0 -0 -0 -0 -0 -0 -0 -0 -0 -0 -0 -0 -0 -0 -110 -97 -74 -35 -46 -70
-0 -0 -0 -0 -0 -0 -0 -0 -0 -6 -1 -5 -2 -8 -4 -3 -4 -4 -2 -0 -0 -0 -0 -7 -13 -0 -0 -0 -0 -0 -0 -0 -3 -3 -3 -11 -0 -13 -0 -0 -0 -89 -82 -68 -79
-0 -22 -0 -0 -0 -0 -0 -0 -0 -6 -2 -4 -1 -7 -4 -7 -6 -4 -6 -8 -0 -0 -0 -16 -10 -2 -0 -0 -3 -0 -0 -0 -22 -17 -3 -7 -6 -0 -66 -114 -101 -61 -86 -95 -91
-0 -33 -0 -0 -0 -0 -0 -0 -3 -3 -3 -0 -31 -10 -1 -9 -2 -4 -7 -2 -26 -0 -0 -0 -11 -12 -11 -0 -0 -0 -8 -6 -5 -9 -0 -25 -71 -0 -189 -159 -171 -116 -127 -99 -128
-135 -30 -0 -0 -0 -0 -0 -0 -2 -2 -7 -0 -0 -5 -28 -16 -23 -17 -36 -0 -0 -24 -41 -0 -0 -9 -1 -0 -0 -0 -0 -20 -10 -23 -6 -10 -16 -0 -0 -209 -254 -247 -250 -176 -159
-170 -2 -12 -10 -23 -7 -0 -0 -0 -18 -11 -11 -21 -11 -13 -20 -32 -31 -41 -0 -0 -85 -0 -16 -38 -21 -5 -41 -37 -1 -0 -0 -9 -7 -9 -9 -60 -0 -0 -0 -0 -0 -47 -176 -179
-178 -132 -27 -6 -35 -42 -24 -0 -0 -8 -26 -27 -11 -5 -6 -8 -16 -7 -1 -0 -0 -0 -0 -17 -17 -10 -36 -0 -0 -0 -0 -0 -0 -0 -8 -12 -0 -0 -0 -0 -0 -0 -0 -0 -59
-0 -71 -1 -76 -45 -26 -63 -51 -14 -56 -41 -36 -19 -24 -21 -30 -36 -11 -20 -0 -49 -0 -2 -0 -38 -51 -0 -0 -0 -0 -0 -0 -0 -0 -0 -0 -111 -0 -0 -0 -0 -0 -0 -0 -0
-0 -0 -1 -0 -96 -63 -0 -0 -13 -64 -3 -28 -35 -28 -58 -0 -0 -0 -0 -0 -0 -0 -0 -0 -0 -0 -6 -0 -0 -0 -0 -0 -0 -0 -86 -14 -85 -0 -0 -0 -0 -0 -0 -0 -0
Wind_Speed
30 30 30 29 28 28 28 28 27 27 26 24 23 22 23 24 26 27 33 27 22 15 15 13 14 14 14 17 19 20 27 31 22 21 20 15 15 13 17 16 10 6 12 6 13
31 31 30 30 29 28 28 27 27 26 25 24 22 20 20 21 26 36 29 25 20 13 13 14 18 16 19 19 20 20 25 27 22 18 19 13 19 21 20 13 8 8 5 9 12
32 32 31 31 30 29 28 27 26 25 24 23 22 20 19 19 25 26 17 18 17 13 16 14 14 18 23 21 22 25 33 26 21 22 18 15 20 21 23 22 14 6 3 7 12
32 32 32 31 31 30 29 27 26 25 23 22 21 20 18 13 21 14 17 9 12 13 16 17 16 19 26 28 26 32 30 30 24 19 20 19 19 22 24 20 15 8 5 8 11
33 33 32 32 31 31 29 27 25 24 22 20 20 19 15 13 18 14 11 4 9 12 16 16 18 20 25 27 27 33 33 28 30 25 22 23 28 26 23 20 14 4 9 11 11
34 33 33 32 32 31 30 27 25 23 21 19 18 17 17 16 15 10 8 4 9 12 14 14 17 17 24 25 27 25 35 38 27 26 25 24 25 22 14 15 7 8 11 12 9
34 34 33 33 32 32 30 28 25 22 20 18 16 16 21 16 16 8 2 6 10 12 13 16 19 14 18 23 25 31 30 29 33 26 20 19 24 17 17 8 6 9 9 10 8
35 34 34 33 33 32 31 29 25 20 17 15 14 17 22 16 11 4 2 9 9 16 16 14 17 16 19 15 15 26 32 32 24 23 21 18 17 14 12 7 7 10 9 9 6
36 35 34 33 33 32 31 29 21 16 14 12 14 17 21 12 10 5 2 6 9 12 16 15 16 18 16 17 17 20 29 28 21 18 17 17 16 10 9 7 9 10 10 8 6
37 36 35 34 33 32 29 24 13 11 13 13 19 18 19 15 6 7 6 6 9 8 11 16 17 18 20 18 21 21 23 23 25 20 20 18 18 9 8 8 9 9 9 8 6
38 37 36 35 33 31 28 20 19 17 17 16 15 15 6 8 2 6 10 8 11 14 18 18 19 20 16 17 21 19 22 18 16 14 17 18 17 10 8 9 10 10 9 7 5
39 38 37 36 35 34 25 22 26 21 22 6 24 15 16 10 7 5 16 5 11 17 17 16 25 20 20 18 23 18 15 15 13 15 18 15 15 13 13 11 10 11 10 8 7
39 38 37 36 35 23 20 25 22 23 20 15 10 16 11 13 9 11 17 4 10 20 19 23 22 20 20 20 21 21 19 16 18 14 19 13 16 15 15 14 14 12 11 10 9
40 38 36 35 27 22 26 22 19 16 19 9 15 21 9 10 14 10 14 4 9 19 23 29 17 20 22 25 22 22 20 21 17 15 20 14 21 17 14 15 15 15 15 14 11
40 38 36 28 31 24 20 20 13 13 20 6 8 8 6 11 4 12 12 5 5 13 20 20 24 21 23 24 23 24 18 19 17 19 18 17 29 17 15 19 17 16 16 14 13
41 38 35 31 25 27 22 17 12 13 22 9 7 6 7 14 6 9 14 13 16 10 26 18 19 20 23 23 20 21 16 16 16 18 22 16 19 13 16 16 16 16 15 14 13
41 39 38 33 24 18 19 17 14 20 13 11 8 5 11 10 5 10 15 16 13 8 13 22 19 17 17 19 18 16 14 13 17 19 19 12 18 15 12 8 12 12 11 10 11
40 40 32 29 28 23 20 18 20 16 16 13 8 8 9 9 6 10 13 16 20 13 7 12 17 20 17 18 14 13 14 14 20 20 15 13 20 15 13 11 9 12 9 10 10
35 25 25 23 23 21 24 20 18 18 18 13 8 8 8 10 10 7 10 16 12 9 15 7 13 9 14 15 13 14 20 21 19 17 17 12 16 12 11 12 12 15 16 15 15
22 18 16 14 14 20 28 25 27 19 14 16 13 19 9 8 13 10 10 11 13 13 24 15 10 15 10 8 14 16 14 19 22 23 25 17 17 15 10 11 12 14 15 15 13
15 14 13 13 14 25 27 27 24 16 13 16 14 16 14 11 21 11 7 14 15 14 20 14 16 10 15 18 11 16 16 22 22 21 23 21 18 11 11 13 15 15 15 14 11
14 10 11 15 17 24 23 23 19 18 14 12 11 11 14 15 17 14 12 14 17 13 14 18 20 11 13 16 20 19 22 15 24 19 23 28 17 12 12 14 15 16 17 16 13
11 7 16 16 16 18 15 21 17 18 18 17 14 13 15 16 16 13 12 13 12 14 15 16 22 21 17 18 17 21 21 23 23 26 24 26 22 13 13 15 18 19 21 18 16
13 11 8 9 8 14 15 18 19 14 15 16 15 13 12 15 17 24 15 13 13 16 17 17 19 27 26 22 23 19 23 22 24 31 30 25 18 14 15 18 20 21 22 20 18
10 12 12 6 5 5 8 15 15 15 14 14 16 19 18 18 16 16 17 16 17 17 21 25 38 31 27 25 25 26 18 21 20 28 27 25 21 16 19 21 21 21 21 20 20
10 13 13 11 6 4 6 6 8 10 12 13 10 12 13 13 16 16 15 15 17 13 16 19 26 27 28 29 33 25 20 19 21 19 18 20 19 20 19 20 22 22 22 21 21
19 17 10 11 9 6 3 6 8 9 7 9 6 6 9 13 13 11 11 12 13 13 11 11 14 16 17 14 16 23 19 21 21 18 22 23 18 21 21 24 26 23 23 23 23
Wind_Direction
331 329 327 323 322 317 309 305 303 298 299 299 298 297 294 290 285 276 269 274 273 271 268 259 265 264 258 265 271 272 267 258 275 276 272 281 271 280 282 281 293 307 313 22 104
332 329 328 325 322 320 313 306 304 302 301 300 301 304 301 297 286 271 272 269 267 253 249 243 250 250 254 261 268 262 267 270 281 282 277 275 266 267 273 285 287 300 342 94 108
330 329 327 327 323 320 317 311 306 305 303 302 302 303 303 302 291 283 285 258 254 237 251 247 251 247 254 261 259 265 259 268 279 275 279 277 272 274 269 269 275 268 188 128 117
332 331 327 324 322 319 315 312 309 307 305 305 301 297 302 311 286 308 300 258 234 229 247 243 246 246 256 256 258 260 259 262 270 278 272 271 283 273 269 275 282 272 166 141 130
332 333 333 323 319 318 315 310 308 307 308 307 298 294 303 302 286 316 317 278 224 225 234 235 240 247 256 259 261 255 256 264 264 272 271 269 264 270 273 276 287 243 163 142 132
328 330 330 325 318 315 314 312 306 308 309 307 302 297 297 292 309 313 315 257 239 224 228 234 249 247 265 266 257 265 256 255 267 266 265 268 267 276 288 281 264 165 157 142 138
325 323 324 324 317 313 312 310 307 308 310 310 307 301 290 286 305 318 306 257 246 230 234 245 259 242 272 268 266 257 258 261 256 261 266 262 264 266 280 276 201 171 166 150 144
323 321 319 318 315 310 308 307 306 309 313 315 310 300 285 301 288 310 298 262 239 248 245 245 261 251 270 285 281 256 252 256 260 253 260 255 252 254 273 240 212 177 171 156 152
320 318 316 315 312 309 306 303 314 315 319 324 309 295 288 304 272 221 273 235 235 245 243 251 256 254 264 264 268 257 251 251 262 250 256 244 254 253 260 235 215 189 175 168 168
316 314 313 310 310 308 305 312 341 335 319 314 295 293 283 286 284 161 192 238 222 226 241 244 252 255 256 252 256 257 256 253 254 249 251 242 250 253 247 232 214 191 184 184 187
311 308 308 306 304 305 301 315 312 310 290 286 299 285 330 309 311 146 146 160 232 236 243 245 242 244 244 251 264 261 249 257 257 255 244 240 247 247 238 236 211 204 190 192 219
308 305 300 301 296 293 300 295 279 292 294 270 267 271 279 285 290 162 141 186 207 234 241 243 246 247 251 253 257 264 257 254 266 265 257 244 246 250 251 244 234 225 219 218 245
307 302 298 295 292 304 297 281 291 288 294 292 272 266 259 266 276 158 156 239 216 237 235 245 252 247 247 252 253 255 256 256 270 260 263 253 255 255 253 254 253 243 241 243 247
306 302 297 293 288 296 286 293 292 283 292 298 278 267 247 256 259 180 163 197 239 239 239 241 253 242 247 249 251 256 257 264 269 260 261 241 264 251 245 247 244 244 244 245 251
304 298 294 294 276 282 288 289 290 279 280 325 288 291 230 178 216 172 171 191 207 239 235 245 246 253 245 248 252 254 266 262 267 264 270 263 262 258 243 250 241 237 243 244 250
300 294 288 281 272 264 273 278 267 281 269 295 289 253 184 164 182 168 173 237 248 245 238 251 257 250 253 256 253 260 261 260 264 268 268 269 257 258 261 242 239 243 244 241 245
298 288 275 265 265 269 256 247 262 263 287 273 275 181 164 177 207 164 169 165 157 196 240 248 254 254 269 256 246 243 236 249 259 263 278 281 270 300 301 234 242 234 237 234 244
293 282 267 254 249 253 237 237 255 265 267 277 265 158 177 175 232 173 172 173 168 160 229 237 251 257 265 251 236 217 225 258 261 265 277 284 277 286 301 300 271 271 238 246 248
290 274 259 252 242 232 226 229 245 257 251 260 251 179 223 233 249 213 232 178 189 183 256 232 270 260 256 250 231 230 246 266 277 286 283 289 287 301 298 292 284 280 275 268 266
275 251 248 249 232 220 224 234 233 257 253 246 242 242 226 212 245 237 236 224 211 218 243 256 266 258 256 250 254 248 252 262 264 272 271 284 283 293 285 294 303 300 293 286 281
214 222 259 229 214 217 226 226 231 248 255 245 256 242 251 236 242 240 221 254 233 211 246 260 268 258 254 250 253 259 259 264 275 277 280 278 284 294 301 304 306 313 311 306 300
181 214 213 207 213 220 228 225 241 235 251 256 267 260 251 249 245 255 251 264 242 240 236 255 261 269 258 269 269 268 265 264 269 276 278 279 296 307 303 316 317 318 317 316 312
164 180 195 216 223 224 234 225 239 238 247 252 260 263 258 251 249 254 260 263 247 245 246 253 258 253 267 272 276 271 273 276 280 281 280 276 280 300 304 305 312 314 315 318 316
159 173 193 213 241 233 226 227 233 257 255 260 264 265 266 259 260 248 261 268 265 254 255 260 265 257 264 271 276 273 274 276 276 272 275 277 288 289 302 304 310 312 315 316 319
170 167 187 215 271 247 240 229 237 249 263 270 261 254 256 256 258 258 255 266 272 272 267 264 252 263 268 282 285 280 285 278 279 278 278 285 282 292 302 304 307 315 320 322 321
163 167 203 203 254 246 242 262 252 255 258 269 274 269 267 264 272 263 269 265 275 281 268 274 272 270 272 279 274 282 287 287 280 284 288 290 291 297 304 308 308 313 318 320 322
114 122 187 197 182 196 286 279 263 248 297 292 304 301 291 280 296 302 297 292 286 276 286 292 288 272 269 294 284 275 288 285 285 292 292 289 300 299 304 303 304 308 314 317 318